INTELSAT 10 (IS-10)

Last updated on Mon Oct 20 2025 00:02:45 GMT+0000 (Coordinated Universal Time)

1 26766U 01019A 25292.11155733 -.00000096 00000+0 00000+0 0 9998 2 26766 8.4966 61.6982 0005293 198.4070 181.6710 0.99079393 43192
UTC large
Height (km)
Speed (km/s)
/
Latitude / Longitude
Inclination (degrees)
Orbital Period (minutes)
Azimuth
Elevation
Range (km)
Doppler Factor

Next 0 passes for location: London (51.5072 / 0.1276)

Sorry there are no passes over London.